Location: Carnières
(50.1682°N, 3.3474°E)
Time: 19:39:25
(UTC+00:00)

Cosmos 2242 Rocket - Pass Details

Date: 23 May 2024
Orbit: 617 x 647 km, 82.5° (Epoch: 14 June)

Event Time Altitude Azimuth Distance (km) Brightness Sun altitude
Exits shadow 02:30:55 13° 208° (SSW) 1,792 5.3 -10.1°
Maximum altitude 02:34:43 53° 284° (WNW) 777 3.9 -9.7°
Drops below altitude 10° 02:39:08 10° 2° (N) 2,033 7.0 -9.2°
Sets 02:41:27 0° 7° (N) 2,952 8.1 -9.0°
